Location: Coll
(42.4728°N, 0.7714°E)
Time: 06:06:20
(UTC+00:00)

SAR-Lupe-1 - Pass Details

Date: 23 October 2020
Orbit: 480 x 485 km, 98.2° (Epoch: 22 November)

Event Time Altitude Azimuth Distance (km) Brightness Sun altitude
Rises 05:19:49 0° 182° (S) 2,530 7.8 -11.7°
Reaches altitude 10° 05:21:57 10° 190° (S) 1,655 6.7 -11.3°
Maximum altitude 05:25:18 39° 261° (W) 731 4.5 -10.7°
Drops below altitude 10° 05:28:41 10° 332° (NNW) 1,667 6.4 -10.1°
Sets 05:30:51 0° 340° (NNW) 2,551 7.5 -9.7°
